Regional Weather Roundup
Issued by NWS

Current Version | Previous Version | Text Only | Print | Product List | Glossary On
Versions: 1 2 3 4 5 6 7 8 9 10 11 12 13 14 15 16 17 18 19 20 21 22 23 24 25 26 27 28 29 30 31 32 33 34 35 36 37 38 39 40 41 42 43 44 45 46 47 48 49 50
000
ASUS44 KOUN 230010
RWROK

WEATHER ROUNDUP FOR OKLAHOMA
NATIONAL WEATHER SERVICE NORMAN OK
700 PM CDT WED OCT 22 2014

NOTE: "FAIR" INDICATES FEW OR NO CLOUDS BELOW 12,000 FEET WITH NO
      SIGNIFICANT WEATHER AND/OR OBSTRUCTIONS TO VISIBILITY.

OKZ001>007-009>012-014-015-017-230100-
NORTHWEST OKLAHOMA AND THE PANHANDLE

CITY           SKY/WX    TMP DP  RH WIND       PRES   REMARKS
GAGE           MOCLDY    61  58  90 S10       30.07R
6HR MIN TEMP:  60; 6HR MAX TEMP:  69; 6HR PCP:  0.09;

ENID/WOODRING  CLOUDY    72  59  64 S8        30.05S
$$

OKZ016-021>023-033>039-044-045-230100-
SOUTHWEST OKLAHOMA

CITY           SKY/WX    TMP DP  RH WIND       PRES   REMARKS
LAWTON/REGL    LGT RAIN  66  62  87 N3        30.10S
6HR MIN TEMP:  66; 6HR MAX TEMP:  78; 6HR PCP:  0.02;

LAWTON/FT SILL LGT RAIN  66  62  87 CALM      30.08F
FREDERICK      LGT RAIN  64  60  87 NW7       30.07F
CLINTON        LGT RAIN  62  58  86 S13       30.12S
HOBART         LGT RAIN  62  60  93 S3        30.11S
ALTUS AFB      DRIZZLE   63  61  94 SE3       30.10S
$$

OKZ018>020-024>031-230100-
CENTRAL OKLAHOMA

CITY           SKY/WX    TMP DP  RH WIND       PRES   REMARKS
OKLAHOMA CITY  LGT RAIN  70  61  73 SW8       30.10R
6HR MIN TEMP:  70; 6HR MAX TEMP:  80; 6HR PCP: TRACE;

OKC/WILEY POST CLOUDY    72  59  63 S9        30.09R
OKC/TINKER AFB CLOUDY    71  59  66 S6        30.09R
STILLWATER     CLOUDY    72  58  61 S8        30.07S
GUTHRIE        CLOUDY    73  58  59 S6        30.08R
$$

OKZ008-013-054>072-230100-
NORTHEAST OKLAHOMA

CITY           SKY/WX    TMP DP  RH WIND       PRES   REMARKS
TULSA          PTCLDY    71  56  58 SE6       30.08R
6HR MIN TEMP:  71; 6HR MAX TEMP:  79;

TULSA/JONES    CLEAR     73  55  53 S6        30.09R
PONCA CITY     CLOUDY    74  57  55 S8        30.06R
BARTLESVILLE   PTCLDY    67  59  75 S3        30.10R
MUSKOGEE       CLEAR     65  56  72 SE7       30.12R
$$

OKZ032-040>043-046>053-073>077-230100-
SOUTH CENTRAL/SOUTHEAST OKLAHOMA

CITY           SKY/WX    TMP DP  RH WIND       PRES   REMARKS
ARDMORE/DWNTWN CLOUDY    72  59  64 CALM      30.09S
MCALESTER      PTCLDY    67  58  72 SE3       30.11R
$$




USA.gov is the U.S. government's official web portal to all federal, state and local government web resources and services.